Location: Moscow
(55.7500°N, 37.5830°E)
Time: 06:27:53
(UTC+03:00)

A-11 Canister half - Pass Details

Date: 03 December 2021
Orbit: 1524 x 1684 km, 47.3° (Epoch: 17 January)

Event Time Altitude Azimuth Distance (km) Brightness Sun altitude
Exits shadow 02:45:52 30° 116° (ESE) 2,649 10.3 -46.8°
Drops below altitude 10° 02:51:22 10° 89° (E) 3,893 11.5 -46.2°
Sets 02:54:45 0° 81° (E) 4,861 12.3 -45.8°
